GW6518 Weather Reports


time (UTC)temp
F
wind
direction
speed
knots
gust
knots
rain 1hr
in
rain 24hr
in
rain mn
in
humidity
%
barometer
mb
20260906231504 71 42 7.0 10.4 0.00 0.00 0.00 65 1013.9
20260906231006 71 59 7.0 10.4 0.00 0.00 0.00 64 1014.0
20260906230508 71 37 6.1 10.4 0.00 0.00 0.00 63 1014.2
20260906230005 71 28 6.1 10.4 0.00 0.00 0.00 64 1014.2
20260906225503 71 27 6.1 9.6 0.00 0.00 0.00 65 1014.2
20260906225004 71 45 7.0 10.4 0.00 0.00 0.00 65 1014.2
20260906224504 71 27 7.8 10.4 0.00 0.00 0.00 65 1014.2
20260906224007 71 39 6.1 8.7 0.00 0.00 0.00 66 1014.3
20260906223503 71 25 6.1 10.4 0.00 0.00 0.00 66 1014.3
20260906223005 70 8 6.1 10.4 0.00 0.00 0.00 65 1014.3
20260906222502 71 49 6.1 10.4 0.00 0.00 0.00 65 1014.2
20260906222006 71 19 7.8 13.9 0.00 0.00 0.00 66 1014.2
20260906221505 71 37 7.8 13.9 0.00 0.00 0.00 66 1014.3
20260906221004 70 58 4.3 11.3 0.00 0.00 0.00 66 1014.3
20260906220504 70 37 7.0 11.3 0.00 0.00 0.00 67 1014.4
20260906220004 70 82 7.0 9.6 0.00 0.00 0.00 66 1014.3
20260906215504 70 59 7.0 11.3 0.00 0.00 0.00 66 1014.3
20260906215004 70 63 7.0 11.3 0.00 0.00 0.00 66 1014.4
20260906214509 70 72 3.5 10.4 0.00 0.00 0.00 67 1014.4
20260906214003 70 53 7.8 10.4 0.00 0.00 0.00 67 1014.4
20260906213503 69 39 7.8 10.4 0.00 0.00 0.00 67 1014.4
20260906213010 69 53 8.7 10.4 0.00 0.00 0.00 67 1014.4
20260906212503 69 65 6.1 11.3 0.00 0.00 0.00 67 1014.5
20260906212004 69 33 7.0 11.3 0.00 0.00 0.00 67 1014.6
20260906211503 69 29 4.3 10.4 0.00 0.00 0.00 67 1014.6
20260906211006 69 39 7.0 9.6 0.00 0.00 0.00 68 1014.7
20260906210504 69 53 6.1 9.6 0.00 0.00 0.00 68 1014.8
20260906210010 69 62 4.3 9.6 0.00 0.00 0.00 69 1015.0
20260906205503 68 77 5.2 9.6 0.00 0.00 0.00 69 1015.0
20260906205004 68 7 7.0 11.3 0.00 0.00 0.00 69 1015.1
20260906204513 68 59 7.0 11.3 0.00 0.00 0.00 69 1015.0
20260906204004 67 98 6.1 9.6 0.00 0.00 0.00 70 1015.1
20260906203504 67 100 7.0 11.3 0.00 0.00 0.00 71 1015.1
20260906203008 66 114 7.8 11.3 0.00 0.00 0.00 72 1015.1
20260906202503 66 98 9.6 11.3 0.00 0.00 0.00 72 1015.3
20260906202006 66 95 7.0 10.4 0.00 0.00 0.00 73 1015.4
20260906201503 66 85 7.8 13.9 0.00 0.00 0.00 72 1015.5
20260906201004 65 91 8.7 13.9 0.00 0.00 0.00 73 1015.5
20260906200504 65 81 8.7 12.2 0.00 0.00 0.00 73 1015.6
20260906200005 64 85 7.0 11.3 0.00 0.00 0.00 75 1015.6
20260906195505 65 65 8.7 13.0 0.00 0.00 0.00 75 1015.8
20260906195004 65 84 7.8 13.9 0.00 0.00 0.00 75 1015.9
20260906194510 65 360 10.4 13.9 0.00 0.00 0.00 74 1015.6
20260906194009 64 360 9.6 12.2 0.00 0.00 0.00 76 1015.6
20260906193506 63 360 9.6 12.2 0.00 0.00 0.00 77 1015.8
20260906193010 63 101 8.7 11.3 0.00 0.00 0.00 78 1016.0
20260906192505 63 99 9.6 12.2 0.00 0.00 0.00 78 1016.0
20260906192006 62 112 7.8 12.2 0.00 0.00 0.00 78 1016.1
20260906191510 62 94 8.7 13.0 0.00 0.00 0.00 79 1016.3
20260906191003 62 62 8.7 14.8 0.00 0.00 0.00 79 1016.3
20260906190505 62 84 10.4 15.6 0.00 0.00 0.00 79 1016.4
20260906190003 62 62 12.2 15.6 0.00 0.00 0.00 79 1016.4
20260906185503 61 76 9.6 15.6 0.00 0.00 0.00 80 1016.4
20260906185003 61 39 10.4 15.6 0.00 0.00 0.00 81 1016.5
20260906184508 61 67 12.2 17.4 0.00 0.00 0.00 81 1016.6
20260906184004 61 44 13.0 18.2 0.00 0.00 0.00 80 1016.6
20260906183508 61 25 9.6 18.2 0.00 0.00 0.00 80 1016.7
20260906183020 62 11 11.3 18.2 0.00 0.00 0.00 77 1016.8
20260906182506 63 360 13.0 16.5 0.00 0.00 0.00 74 1016.8
20260906182007 65 360 7.8 13.0 0.00 0.00 0.00 75 1016.8
20260906181534 66 360 5.2 8.7 0.00 0.00 0.00 74 1016.8
20260906181007 66 360 4.3 7.8 0.00 0.00 0.00 74 1016.9
20260906180508 66 360 2.6 8.7 0.00 0.00 0.00 74 1017.0
20260906180022 66 360 5.2 8.7 0.00 0.00 0.00 74 1017.2
20260906175504 66 360 4.3 7.0 0.00 0.00 0.00 74 1017.1
20260906175002 66 295 4.3 9.6 0.00 0.00 0.00 74 1017.2
20260906174504 66 310 6.1 9.6 0.00 0.00 0.00 73 1017.1
20260906174004 66 257 4.3 8.7 0.00 0.00 0.00 74 1017.2
20260906173504 66 304 5.2 7.8 0.00 0.00 0.00 76 1017.2
20260906173010 65 309 5.2 7.0 0.00 0.00 0.00 75 1017.3
20260906172504 66 318 3.5 7.0 0.00 0.00 0.00 74 1017.3
20260906172005 66 298 3.5 7.0 0.00 0.00 0.00 74 1017.3
20260906171514 65 261 1.7 6.1 0.00 0.00 0.00 76 1017.3
20260906171008 65 257 3.5 7.0 0.00 0.00 0.00 75 1017.4
20260906170508 65 269 4.3 7.0 0.00 0.00 0.00 75 1017.3
20260906170016 65 309 2.6 7.0 0.00 0.00 0.00 75 1017.5
20260906165509 65 264 4.3 6.1 0.00 0.00 0.00 75 1017.5
20260906165008 65 288 3.5 6.1 0.00 0.00 0.00 74 1017.3
20260906164517 65 285 2.6 6.1 0.00 0.00 0.00 74 1017.3
20260906164009 66 277 2.6 6.1 0.00 0.00 0.00 73 1017.3
20260906163504 66 281 1.7 4.3 0.00 0.00 0.00 73 1017.4
20260906163008 66 316 2.6 4.3 0.00 0.00 0.00 73 1017.5
20260906162506 66 316 1.7 4.3 0.00 0.00 0.00 73 1017.3
20260906162003 66 34 0.9 5.2 0.00 0.00 0.00 73 1017.5
20260906161512 66 25 1.7 5.2 0.00 0.00 0.00 73 1017.4
20260906161005 65 321 1.7 5.2 0.00 0.00 0.00 74 1017.5
20260906160507 65 311 2.6 5.2 0.00 0.00 0.00 75 1017.9
20260906160018 65 326 3.5 5.2 0.00 0.00 0.00 75 1017.9
20260906155508 64 38 0.0 3.5 0.00 0.00 0.00 77 1017.8
20260906155008 63 99 0.0 4.3 0.00 0.00 0.00 78 1017.9
20260906154534 63 99 2.6 6.1 0.00 0.00 0.00 78 1017.8
20260906154008 63 74 1.7 7.0 0.00 0.00 0.00 79 1017.9
20260906153510 62 360 4.3 8.7 0.00 0.00 0.00 79 1017.9
20260906153021 62 79 3.5 8.7 0.00 0.00 0.00 80 1018.0
20260906152512 62 360 4.3 9.6 0.00 0.00 0.00 80 1018.1
20260906152006 62 63 5.2 10.4 0.00 0.00 0.00 80 1018.1
20260906151512 62 60 5.2 11.3 0.00 0.00 0.00 80 1018.1
20260906151009 61 86 7.8 12.2 0.00 0.00 0.00 80 1018.0
20260906150506 61 95 9.6 13.0 0.00 0.00 0.00 81 1017.9
20260906150014 61 99 8.7 13.0 0.00 0.00 0.00 81 1018.0
20260906145510 61 91 8.7 12.2 0.00 0.00 0.00 80 1017.9
20260906145008 61 360 8.7 13.0 0.00 0.00 0.00 80 1018.1
20260906144524 61 360 7.0 13.0 0.00 0.00 0.00 80 1018.2
20260906144010 61 360 8.7 12.2 0.00 0.00 0.00 80 1018.1
20260906143511 61 85 7.8 12.2 0.00 0.00 0.00 80 1018.2
20260906143024 61 360 7.8 12.2 0.00 0.00 0.00 81 1018.3
20260906142512 61 58 8.7 12.2 0.00 0.00 0.00 81 1018.3
20260906142011 60 70 7.8 12.2 0.00 0.00 0.00 82 1018.3
20260906141508 59 360 7.0 12.2 0.00 0.00 0.00 83 1018.1
20260906141006 59 360 7.8 13.0 0.00 0.00 0.00 84 1018.1
20260906140505 59 360 10.4 13.0 0.00 0.00 0.00 84 1018.0
20260906140013 59 360 8.7 11.3 0.00 0.00 0.00 84 1018.1
20260906135507 58 82 7.0 10.4 0.00 0.00 0.00 85 1018.3
20260906135008 58 86 7.8 10.4 0.00 0.00 0.00 85 1018.5
20260906134526 58 360 6.1 11.3 0.00 0.00 0.00 85 1018.6
20260906134011 58 80 7.8 11.3 0.00 0.00 0.00 85 1018.4
20260906133509 58 44 6.1 11.3 0.00 0.00 0.00 85 1018.3
20260906133026 57 28 7.0 13.9 0.00 0.00 0.00 86 1018.0
20260906132515 57 36 9.6 13.9 0.00 0.00 0.00 86 1017.8
20260906132004 57 52 7.0 12.2 0.00 0.00 0.00 86 1017.7
20260906131511 57 16 7.8 12.2 0.00 0.00 0.00 87 1017.8
20260906131004 56 29 7.0 12.2 0.00 0.00 0.00 87 1017.8
20260906130506 56 16 7.0 10.4 0.00 0.00 0.00 88 1017.8
20260906130011 56 17 6.1 10.4 0.00 0.00 0.00 88 1017.9
20260906125508 55 26 6.1 11.3 0.00 0.00 0.00 88 1017.9
20260906125007 55 39 7.0 13.0 0.00 0.00 0.00 88 1017.7
20260906124521 55 52 7.8 13.0 0.00 0.00 0.00 88 1017.5
20260906124008 55 51 7.0 12.2 0.00 0.00 0.00 88 1017.4
20260906123510 55 25 10.4 13.9 0.00 0.00 0.00 88 1017.4
20260906123026 55 34 10.4 13.9 0.00 0.00 0.00 88 1017.5
20260906122511 55 33 8.7 13.0 0.00 0.00 0.00 89 1017.7
20260906122013 55 56 8.7 11.3 0.00 0.00 0.00 90 1017.6
20260906121525 54 44 7.0 9.6 0.00 0.00 0.00 90 1017.6
20260906121014 54 53 5.2 9.6 0.00 0.00 0.00 90 1017.7
20260906120504 54 50 7.0 9.6 0.00 0.00 0.00 90 1017.6
20260906120011 54 60 7.0 9.6 0.00 0.00 0.00 91 1017.5
20260906115505 53 50 7.0 8.7 0.00 0.00 0.00 91 1017.7
20260906115006 53 72 5.2 7.0 0.00 0.00 0.00 91 1017.8
20260906114529 52 69 4.3 6.1 0.00 0.00 0.00 91 1017.8
20260906114006 51 69 4.3 6.1 0.00 0.00 0.00 90 1017.7
20260906113509 51 72 4.3 5.2 0.00 0.00 0.00 90 1017.8
20260906113018 52 87 4.3 5.2 0.00 0.00 0.00 89 1017.9
20260906112509 52 98 4.3 7.0 0.00 0.00 0.00 89 1017.9
20260906112013 52 100 3.5 7.0 0.00 0.00 0.00 88 1017.9
20260906111533 53 82 4.3 7.0 0.00 0.00 0.00 88 1018.1
20260906111012 53 82 4.3 6.1 0.00 0.00 0.00 88 1018.0
20260906110514 54 139 4.3 7.8 0.00 0.00 0.00 87 1017.9
20260906110031 54 360 4.3 7.8 0.00 0.00 0.00 87 1018.0
20260906105514 55 360 6.1 8.7 0.00 0.00 0.00 87 1017.9
20260906105007 55 360 6.1 10.4 0.00 0.00 0.00 86 1017.9
20260906104511 55 360 7.0 11.3 0.00 0.00 0.00 86 1017.8
20260906104007 55 360 8.7 13.0 0.00 0.00 0.00 85 1017.9
20260906103506 56 360 7.8 14.8 0.00 0.00 0.00 85 1017.9
20260906103019 56 360 9.6 17.4 0.00 0.00 0.00 85 1017.8
20260906102513 56 360 9.6 17.4 0.00 0.00 0.00 85 1017.9
20260906102008 56 360 12.2 17.4 0.00 0.00 0.00 85 1017.8
20260906101527 56 89 8.7 12.2 0.00 0.00 0.00 85 1017.7
20260906101012 55 75 10.4 12.2 0.00 0.00 0.00 85 1017.7
20260906100512 55 71 6.1 10.4 0.00 0.00 0.00 85 1017.6
20260906100033 55 78 7.0 10.4 0.00 0.00 0.00 84 1017.7
20260906095520 55 55 7.0 11.3 0.00 0.00 0.00 84 1017.9
20260906095014 56 60 7.8 12.2 0.00 0.00 0.00 83 1017.9
20260906094552 56 35 9.6 14.8 0.00 0.00 0.00 83 1017.8
20260906094016 56 46 9.6 17.4 0.00 0.00 0.00 83 1017.8
20260906093514 56 44 13.0 17.4 0.00 0.00 0.00 82 1017.5
20260906093018 56 58 12.2 17.4 0.00 0.00 0.00 82 1017.5
20260906092508 56 44 12.2 17.4 0.00 0.00 0.00 82 1017.5
20260906092009 57 46 13.0 17.4 0.00 0.00 0.00 82 1017.5
20260906091523 57 49 13.0 17.4 0.00 0.00 0.00 82 1017.5
20260906091015 57 52 12.2 17.4 0.00 0.00 0.00 81 1017.5
20260906090510 56 34 13.9 18.2 0.00 0.00 0.00 81 1017.5
20260906090032 57 63 13.0 18.2 0.00 0.00 0.00 81 1017.4
20260906085512 57 60 12.2 17.4 0.00 0.00 0.00 81 1017.4
20260906085015 57 53 11.3 18.2 0.00 0.00 0.00 81 1017.5
20260906084531 57 59 13.0 20.0 0.00 0.00 0.00 81 1017.5
20260906084015 57 62 13.9 20.0 0.00 0.00 0.00 80 1017.6
20260906083514 57 50 13.9 19.1 0.00 0.00 0.00 80 1017.7
20260906083043 57 52 13.9 19.1 0.00 0.00 0.00 80 1017.7
20260906082513 57 65 13.0 18.2 0.00 0.00 0.00 80 1017.8
20260906082017 57 56 13.0 18.2 0.00 0.00 0.00 80 1018.0
20260906081520 57 55 13.0 17.4 0.00 0.00 0.00 81 1018.1
20260906081010 56 360 13.0 17.4 0.00 0.00 0.00 80 1018.1
20260906080512 57 360 10.4 15.6 0.00 0.00 0.00 80 1018.3
20260906080009 57 360 11.3 15.6 0.00 0.00 0.00 80 1018.4
20260906075502 57 360 12.2 17.4 0.00 0.00 0.00 80 1018.4
20260906075006 57 360 12.2 17.4 0.00 0.00 0.00 80 1018.4
20260906074504 57 100 13.0 16.5 0.00 0.00 0.00 79 1018.4
20260906074004 57 107 12.2 16.5 0.00 0.00 0.00 79 1018.5
20260906073504 57 89 11.3 14.8 0.00 0.00 0.00 79 1018.6
20260906073018 58 75 12.2 16.5 0.00 0.00 0.00 78 1018.6
20260906072502 58 69 11.3 16.5 0.00 0.00 0.00 78 1018.7
20260906072003 58 360 12.2 16.5 0.00 0.00 0.00 78 1018.7
20260906071516 58 360 12.2 16.5 0.00 0.00 0.00 77 1018.6
20260906071006 58 100 10.4 18.2 0.00 0.00 0.00 77 1018.7
20260906070511 59 105 14.8 18.2 0.00 0.00 0.00 76 1018.6
20260906070018 59 94 13.9 18.2 0.00 0.00 0.00 76 1018.8
20260906065513 59 94 13.9 19.1 0.00 0.00 0.00 75 1018.8
20260906065011 59 87 14.8 20.0 0.00 0.00 0.00 75 1018.7
20260906064502 60 75 13.9 20.0 0.00 0.00 0.00 74 1018.8
20260906064004 60 79 13.0 21.7 0.00 0.00 0.00 74 1018.8
20260906063501 60 89 13.9 21.7 0.00 0.00 0.00 74 1018.9
20260906063004 60 86 15.6 20.9 0.00 0.00 0.00 74 1018.8
20260906062503 60 63 13.0 20.0 0.00 0.00 0.00 74 1018.9
20260906062004 60 72 13.0 20.0 0.00 0.00 0.00 74 1018.9
20260906061511 60 93 13.0 18.2 0.00 0.00 0.00 73 1019.0
20260906061007 60 77 13.0 20.0 0.00 0.00 0.00 73 1018.8
20260906060511 60 82 13.9 20.0 0.00 0.00 0.00 72 1018.8
20260906060018 60 80 14.8 20.0 0.00 0.00 0.00 72 1018.8
20260906055510 60 72 15.6 20.0 0.00 0.00 0.00 72 1018.9
20260906055012 60 79 13.9 19.1 0.00 0.00 0.00 72 1018.9
20260906054524 60 82 14.8 19.1 0.00 0.00 0.00 71 1018.8
20260906054016 60 84 13.0 18.2 0.00 0.00 0.00 71 1018.8
20260906053512 61 83 13.0 17.4 0.00 0.00 0.00 71 1018.8
20260906053004 61 78 12.2 15.6 0.00 0.00 0.00 71 1018.9
20260906052507 60 58 10.4 15.6 0.00 0.00 0.00 71 1018.9
20260906052004 60 79 10.4 14.8 0.00 0.00 0.00 71 1018.9
20260906051508 60 70 9.6 13.9 0.00 0.00 0.00 72 1018.8
20260906051006 60 75 8.7 11.3 0.00 0.00 0.00 72 1018.9
20260906050503 60 81 8.7 12.2 0.00 0.00 0.00 73 1018.7
20260906050012 60 84 9.6 12.2 0.00 0.00 0.00 73 1018.6
20260906045511 60 77 8.7 12.2 0.00 0.00 0.00 73 1018.5
20260906045009 60 95 8.7 11.3 0.00 0.00 0.00 73 1018.6
20260906044523 60 90 8.7 10.4 0.00 0.00 0.00 73 1018.5
20260906044012 60 108 7.0 10.4 0.00 0.00 0.00 74 1018.5
20260906043512 59 94 7.0 11.3 0.00 0.00 0.00 74 1018.4
20260906043024 59 84 7.8 11.3 0.00 0.00 0.00 75 1018.4
20260906042514 58 82 6.1 8.7 0.00 0.00 0.00 76 1018.4
20260906042014 59 101 5.2 8.7 0.00 0.00 0.00 76 1018.3
20260906041504 59 93 5.2 11.3 0.00 0.00 0.00 76 1018.3
20260906041002 59 88 7.8 11.3 0.00 0.00 0.00 76 1018.2
20260906040504 59 80 8.7 11.3 0.00 0.00 0.00 76 1018.2
20260906040017 59 72 7.8 10.4 0.00 0.00 0.00 75 1018.2
20260906035506 59 90 7.8 10.4 0.00 0.00 0.00 75 1018.2
20260906035007 59 360 7.0 10.4 0.00 0.00 0.00 74 1018.1
20260906034520 59 360 7.8 10.4 0.00 0.00 0.00 74 1018.1
20260906034011 60 90 7.8 12.2 0.00 0.00 0.00 73 1018.0
20260906033511 60 63 7.8 12.2 0.00 0.00 0.00 73 1018.0
20260906033036 60 71 9.6 12.2 0.00 0.00 0.00 73 1018.0
20260906032512 60 56 7.8 10.4 0.00 0.00 0.00 72 1018.1
20260906032015 61 68 7.8 10.4 0.00 0.00 0.00 71 1018.1
20260906031536 61 68 7.8 10.4 0.00 0.00 0.00 70 1018.1
20260906031016 61 79 7.8 11.3 0.00 0.00 0.00 70 1018.0
20260906030516 61 360 7.8 13.0 0.00 0.00 0.00 69 1017.9
20260906030011 62 93 9.6 13.0 0.00 0.00 0.00 68 1017.9
20260906025503 62 91 10.4 13.9 0.00 0.00 0.00 67 1017.8
20260906025003 63 77 10.4 15.6 0.00 0.00 0.00 67 1017.8
20260906024531 63 60 10.4 18.2 0.00 0.00 0.00 65 1017.8
20260906024008 63 81 12.2 19.1 0.00 0.00 0.00 64 1017.7
20260906023509 64 360 13.0 21.7 0.00 0.00 0.00 63 1017.6
20260906023022 64 360 15.6 21.7 0.00 0.00 0.00 62 1017.5
20260906022508 65 360 14.8 20.0 0.00 0.00 0.00 61 1017.3
20260906022012 65 360 13.9 21.7 0.00 0.00 0.00 60 1017.3
20260906021527 66 360 12.2 21.7 0.00 0.00 0.00 57 1017.4
20260906021015 67 360 14.8 25.2 0.00 0.00 0.00 55 1017.4
20260906020516 67 360 14.8 25.2 0.00 0.00 0.00 54 1017.3
20260906020032 68 360 15.6 20.9 0.00 0.00 0.00 50 1017.2
20260906015514 69 360 13.0 17.4 0.00 0.00 0.00 48 1017.2
20260906015017 69 360 10.4 19.1 0.00 0.00 0.00 47 1017.3
20260906014512 70 360 13.9 21.7 0.00 0.00 0.00 46 1017.2
20260906014006 71 360 15.6 21.7 0.00 0.00 0.00 43 1017.1
20260906013509 72 72 8.7 10.4 0.00 0.00 0.00 41 1016.9
20260906013034 72 65 7.8 9.6 0.00 0.00 0.00 41 1016.7
20260906012510 73 80 6.1 13.9 0.00 0.00 0.00 40 1016.6
20260906012008 74 91 7.8 13.9 0.00 0.00 0.00 38 1016.6
20260906011520 74 83 8.7 12.2 0.00 0.00 0.00 38 1016.5
20260906011011 74 79 8.7 12.2 0.00 0.00 0.00 38 1016.5
20260906010510 75 73 8.7 12.2 0.00 0.00 0.00 37 1016.5
20260906010029 75 69 7.8 12.2 0.00 0.00 0.00 37 1016.5
20260906005514 76 84 8.7 13.0 0.00 0.00 0.00 36 1016.6
20260906005014 76 44 7.8 13.0 0.00 0.00 0.00 36 1016.6
20260906004530 76 60 8.7 11.3 0.00 0.00 0.00 36 1016.6
20260906004016 76 60 7.0 11.3 0.00 0.00 0.00 36 1016.6
20260906003520 76 81 7.0 13.0 0.00 0.00 0.00 36 1016.6
20260906003012 77 86 7.8 14.8 0.00 0.00 0.00 35 1016.6
20260906002507 77 63 11.3 15.6 0.00 0.00 0.00 35 1016.6
20260906002011 77 72 11.3 14.8 0.00 0.00 0.00 35 1016.6
20260906001521 77 79 8.7 13.0 0.00 0.00 0.00 35 1016.8
20260906001011 77 62 7.8 13.0 0.00 0.00 0.00 35 1016.7
20260906000511 78 65 8.7 13.0 0.00 0.00 0.00 35 1016.7
20260906000025 78 78 8.7 12.2 0.00 0.00 0.00 34 1016.7
20260905235517 78 57 9.6 13.0 0.00 0.00 0.00 33 1016.7
20260905235012 78 58 8.7 15.6 0.00 0.00 0.00 34 1016.6
20260905234532 78 67 9.6 15.6 0.00 0.00 0.00 33 1016.6
20260905234014 78 91 9.6 15.6 0.00 0.00 0.00 33 1016.6
20260905233520 78 44 9.6 14.8 0.00 0.00 0.00 33 1016.7
20260905233030 78 56 11.3 14.8 0.00 0.00 0.00 34 1016.6
20260905232519 78 75 10.4 14.8 0.00 0.00 0.00 34 1016.6
20260905232020 78 52 11.3 14.8 0.00 0.00 0.00 34 1016.6
20260905231514 78 60 8.7 16.5 0.00 0.00 0.00 33 1016.6